FENGYUN 1C DEB, 31356

Orbit data source: Space-Track

FENGYUN 1C DEB, 31356 is space debris in SSO originally from a launch on Mon, 10 May 1999 UTC launched from the Taiyaun Space Center, China (TSC). Fengyun 1C debris stems from the Chinese weather satellite Fengyun-1C, which was intentionally destroyed by a Chinese anti-satellite missile in 2007. This event dramatically increased the amount of space debris, with thousands of trackable fragments posing hazards to satellites and human spaceflight. The Fengyun 1C debris cloud has become a focal point in discussions about space sustainability and the need for international regulations to prevent the creation of new debris.

Loading next visibility...
Identifier
31356, 1999-025BRL
Orbit
SSO
Country
Flag of CNCN / PRC
Related business
Manufacturer
Unknown
Mission
Spacecraft
Bus & Motor
Unknown
Mass
Unknown
Launch date (UTC)
1999-05-10 (27 years ago)
Launch vehicle
Unknown
Launch site
Taiyaun Space Center, China (TSC)
Object type
Payload
Rocket body
Debris
Shape & HBR
Unknown shape, 1.1 m
Radar Cross Section
Medium (>0.1 m² and <1 m²)

Expand to show TLE details & history
Last TLE update: 5 days ago

TLE from 5 days ago
0 FENGYUN 1C DEB
1 31356U 99025BRL 26250.21385424  .00014697  00000-0  17683-2 0  9991
2 31356  98.6510  35.6641 0025780 135.5188 224.8100 14.83790794690922
Epoch: 2026-09-07T05:07Z
TLE epoch observation values (Epoch: 2026-09-07T05:07:57.006Z)
Latitude
0.00003°
Longitude
-27.62127°
Altitude
633.207 km
Speed
7.535 km/s
True Right ascension
02h 22m 39s
True Declination
0° 00' 00"
Sunlit
Object was in full shadow at epoch
Visualization orbit readout
Latitude
Unknown
Longitude
Unknown
Altitude
Unknown
Speed
Unknown
Apparent Right ascension
Unknown
Apparent Declination
Unknown
Sunlit
N/A
Visualization observer readout
Local Sidereal Time
09:32:23
Azimuth
Unknown
Elevation
Unknown
Doppler factor
Unknown
Orbital elements
Apogee altitude
632.482 km
Perigee altitude
596.428 km
Semi-major axis
6,992.592 km
Eccentricity
0.00258
Inclination
98.651°
RAAN
35.6641°
Arg. of periapsis
135.5188°
True anomaly
224.60228°
Mean anomaly
224.81°
Eccentric anomaly
224.70609°
Mean motion
3.71181 °/min
Orbital period
96.99 mins
BSTAR
0.0017683
Loading maneuver chart data...
Computing Atmospheric mass density...
Loading historical data...
Loading historical data...
Loading historical data...
Loading historical data...
Loading historical data...
Loading historical data...
Loading historical data...

Documentation

Showing up to 5 results
|